Weather History for PAFA - January, 2013

Change the Weather History Date:

Wednesday, January 16, 2013

  Actual Average Record
Temperature  
Mean Temperature 2 °F -9 °F  
Max Temperature 9 °F 0 °F 52 °F (2009)
Min Temperature -5 °F -18 °F -58 °F (1934)
Degree Days  
Heating Degree Days 63 74  
Month to date heating degree days 927 1168  
Since 1 July heating degree days 7951 7440  
Cooling Degree Days 0 0  
Month to date cooling degree days 0 0  
Year to date cooling degree days 0 0  
Moisture  
Dew Point -1 °F    
Average Humidity 84    
Maximum Humidity 92    
Minimum Humidity 74    
Precipitation  
Precipitation T in 0.02 in 0.32 in (1933)
Month to date precipitation 0.48 0.32  
Year to date precipitation 0.48 0.32  
Snow  
Snow 0.10 in 0.30 in 4.50 in (1929)
Month to date snowfall 5.0 5.7  
Since 1 July snowfall 34.9 43.6  
Snow Depth 16.00 in    
Sea Level Pressure  
Sea Level Pressure 30.05 in    
Wind  
Wind Speed 2 mph (NNE)    
Max Wind Speed 6 mph    
Max Gust Speed -    
Visibility 9 miles    
Events Snow    
T = Trace of Precipitation, MM = Missing Value Source: NWS Daily Summary

Daily Weather History Graph

Daily Weather History Graph

Search for Another Location

Airport or City:

Trip Planner

Search our weather history database for the weather conditions in past years. The results will help you decide how hot, cold, wet, or windy it might be!

Date:

Astronomy

Jan. 16, 2013 Rise Set
Actual Time 10:22 AM AKST 3:40 PM AKST
Civil Twilight 9:13 AM AKST 4:50 PM AKST
Nautical Twilight 8:07 AM AKST 5:56 PM AKST
Astronomical Twilight 7:08 AM AKST 6:55 PM AKST
Moon 10:29 AM AKST (1/16) No Moon Set
Length of Visible Light 7h 36m
Length of Day
5h 17m
Waxing Crescent, 29% of the Moon is Illuminated
Jan 16
Waxing Crescent
Jan 18
First Quarter
Jan 26
Full
Feb 3
Last Quarter
Feb 9
New

Hourly Weather History & Observations

Time (AKST) Temp. Windchill Dew Point Humidity Pressure Visibility Wind Dir Wind Speed Gust Speed Precip Events Conditions
12:53 AM 3.0 °F -8.0 °F -0.0 °F 87% 30.27 in 10.0 mi NNE 5.8 mph - N/A   Mostly Cloudy
1:53 AM -0.9 °F -8.9 °F -5.1 °F 83% 30.27 in 10.0 mi North 3.5 mph - N/A   Mostly Cloudy
2:53 AM -0.9 °F -8.9 °F -5.1 °F 83% 30.26 in 10.0 mi NNE 3.5 mph - N/A   Mostly Cloudy
3:53 AM 3.0 °F - -0.0 °F 87% 30.25 in 10.0 mi Calm Calm - N/A   Overcast
4:53 AM 1.9 °F - -2.9 °F 80% 30.22 in 10.0 mi Calm Calm - N/A   Overcast
5:53 AM -0.9 °F - -5.1 °F 83% 30.20 in 10.0 mi Calm Calm - N/A   Overcast
6:53 AM 1.9 °F - -2.0 °F 83% 30.19 in 10.0 mi Calm Calm - N/A   Overcast
7:53 AM 1.0 °F -6.7 °F -2.0 °F 87% 30.17 in 10.0 mi NE 3.5 mph - N/A   Overcast
8:53 AM -0.0 °F - -4.0 °F 83% 30.15 in 10.0 mi Calm Calm - N/A   Mostly Cloudy
9:53 AM -2.9 °F - -6.0 °F 87% 30.14 in 10.0 mi Calm Calm - N/A   Scattered Clouds
10:53 AM -5.8 °F -18.4 °F -7.6 °F 92% 30.07 in 10.0 mi East 5.8 mph - N/A   Scattered Clouds
11:53 AM -2.0 °F - -6.0 °F 83% 30.10 in 10.0 mi Calm Calm - N/A   Scattered Clouds
12:53 PM -0.4 °F - -5.8 °F 78% 30.03 in 10.0 mi Calm Calm - N/A   Mostly Cloudy
1:17 PM -2.2 °F - -5.8 °F 85% 30.01 in 10.0 mi Calm Calm - N/A   Mostly Cloudy
1:53 PM -0.0 °F - -4.0 °F 83% 30.04 in 10.0 mi Calm Calm - N/A   Mostly Cloudy
2:53 PM 3.0 °F - -0.9 °F 84% 30.02 in 10.0 mi Calm Calm - N/A   Mostly Cloudy
3:53 PM 5.0 °F - 1.0 °F 84% 30.00 in 10.0 mi Calm Calm - N/A   Mostly Cloudy
4:53 PM 5.0 °F - 1.0 °F 84% 29.98 in 10.0 mi Calm Calm - N/A   Mostly Cloudy
5:53 PM 6.1 °F - 1.9 °F 83% 29.96 in 10.0 mi Calm Calm - N/A   Overcast
6:53 PM 8.1 °F 1.4 °F 3.9 °F 83% 29.94 in 10.0 mi WSW 3.5 mph - N/A   Overcast
7:53 PM 8.1 °F - 5.0 °F 87% 29.93 in 10.0 mi Calm Calm - N/A   Overcast
8:53 PM 8.1 °F - 5.0 °F 87% 29.91 in 10.0 mi Calm Calm - N/A Snow Light Snow
9:53 PM 8.1 °F - 5.0 °F 87% 29.90 in 10.0 mi Calm Calm - N/A Snow Light Snow
10:33 PM 8.6 °F - 5.0 °F 85% 29.85 in 3.0 mi Calm Calm - N/A Snow Light Snow
10:43 PM 8.6 °F - 5.0 °F 85% 29.85 in 2.5 mi Calm Calm - N/A Snow Light Snow
10:53 PM 8.1 °F - 5.0 °F 87% 29.89 in 2.5 mi Calm Calm - N/A Snow Light Snow
10:57 PM 8.6 °F - 5.0 °F 85% 29.85 in 4.0 mi Calm Calm - N/A Snow Light Snow
11:53 PM 9.0 °F - 5.0 °F 84% 29.88 in 4.0 mi Calm Calm - N/A Snow Light Snow